Year,Month,Day,Hour,Minute,Value (Times are PST for temperature in C)
2014,12,15,09,32,6.20
2014,12,15,09,33,6.20
2014,12,15,09,34,6.20
2014,12,15,09,35,6.20
2014,12,15,09,36,6.20
2014,12,15,09,37,6.20
2014,12,15,09,38,6.30
2014,12,15,09,39,6.40
2014,12,15,09,40,6.40
2014,12,15,09,41,6.40
2014,12,15,09,42,6.40
2014,12,15,09,43,6.40
2014,12,15,09,44,6.40
2014,12,15,09,45,6.40
2014,12,15,09,46,6.40
2014,12,15,09,47,6.40
2014,12,15,09,48,6.40
2014,12,15,09,49,6.40
2014,12,15,10,05,7.40
2014,12,15,10,06,7.40
2014,12,15,10,07,7.40
2014,12,15,10,08,7.40
2014,12,15,10,09,7.40
2014,12,15,10,10,7.40
2014,12,15,10,11,7.40
2014,12,15,10,12,7.40
2014,12,15,10,13,7.40
2014,12,15,10,14,7.40
2014,12,15,10,15,7.40
2014,12,15,10,16,7.40
2014,12,15,10,17,7.40
2014,12,15,10,18,7.40
2014,12,15,10,19,7.40
2014,12,15,10,20,7.40
2014,12,15,10,21,7.40
2014,12,15,10,22,7.40
2014,12,15,10,23,7.40
2014,12,15,10,24,7.40
2014,12,15,10,25,7.40
2014,12,15,10,26,7.40
2014,12,15,10,27,7.50
2014,12,15,10,28,7.50
2014,12,15,10,29,7.50
2014,12,15,10,30,7.50
2014,12,15,10,31,7.50
2014,12,15,10,32,7.50
2014,12,15,10,33,7.50
2014,12,15,10,34,7.50
2014,12,15,10,35,7.50
2014,12,15,10,36,7.50
2014,12,15,10,37,7.50
2014,12,15,10,38,7.50
2014,12,15,10,39,7.50
2014,12,15,10,56,7.50
2014,12,15,10,57,7.50
2014,12,15,10,58,7.50
2014,12,15,10,59,7.50
2014,12,15,11,00,7.50
2014,12,15,11,01,7.50
2014,12,15,11,02,7.50
2014,12,15,11,03,7.50
2014,12,15,11,04,7.50
2014,12,15,11,05,7.50
2014,12,15,11,06,7.50
2014,12,15,11,07,7.50
2014,12,15,11,23,7.90
2014,12,15,11,24,7.90
2014,12,15,11,25,8.00
2014,12,15,11,26,8.00
2014,12,15,11,27,8.10
2014,12,15,11,28,8.10
2014,12,15,11,29,8.10
2014,12,15,11,30,8.00
2014,12,15,11,31,8.00
2014,12,15,11,32,8.00
2014,12,15,11,33,8.00
2014,12,15,11,34,8.10
2014,12,15,11,35,8.10
2014,12,15,11,36,8.10
2014,12,15,11,37,8.20
2014,12,15,11,38,8.20
2014,12,15,11,39,8.20
2014,12,15,11,40,8.20
2014,12,15,11,41,8.20
2014,12,15,11,42,8.20
2014,12,15,11,43,8.10
2014,12,15,11,44,8.10
2014,12,15,11,45,8.10
2014,12,15,11,46,8.10
2014,12,15,11,47,8.10
2014,12,15,11,48,8.10
2014,12,15,11,49,8.10
2014,12,15,11,50,8.00
2014,12,15,11,51,8.00
2014,12,15,11,52,8.00
2014,12,15,11,53,8.00
2014,12,15,11,54,8.00
2014,12,15,11,55,8.00
2014,12,15,11,56,8.00
2014,12,15,11,57,8.00
2014,12,15,11,58,8.00
2014,12,15,11,59,8.00
2014,12,15,12,00,8.00
2014,12,15,12,01,8.00
2014,12,15,12,02,8.00
2014,12,15,12,03,7.80
2014,12,15,12,04,7.80
2014,12,15,12,05,7.80
2014,12,15,12,06,7.80
2014,12,15,12,07,7.80
2014,12,15,12,08,7.80
2014,12,15,12,09,7.80
2014,12,15,12,10,7.80
2014,12,15,12,11,7.80
2014,12,15,12,12,7.80
2014,12,15,13,54,7.20
2014,12,15,13,55,7.20
2014,12,15,13,56,7.20
2014,12,15,13,57,7.20
2014,12,15,13,58,7.20
2014,12,15,13,59,7.20
2014,12,15,14,00,7.20
2014,12,15,14,01,7.20
2014,12,15,14,02,7.20
2014,12,15,14,03,7.20
2014,12,15,14,04,7.20
